Home > Time Zones > World Clock > Weather > Cuba > Havana > Past weeks

Flag Weather past 2 weeks in Havana, Cuba

Now
75 °F

Passing clouds.


Feels Like: 75 °F
Forecast: 69 / 78 °F
Wind: 2 mph from South

Location: Aeropuerto Jose Marti - Rancho-Boyeros - Habana

Current Time: Nov 25, 2014 at 9:02:27 PM

Latest Report: Nov 25, 2014 at 8:18 PM


Visibility: 3 mi

Pressure: 30.01 "Hg

Humidity: 89%

Dew point: 72 °F

Location of HavanaLocation

Historic Weather in Havana — Graph

°F

Havana temperature yesterday

Maximum temperature yesterday: 84 °F (at 10:55 AM)
Minimum temperature yesterday: 34 °F (at 4:55 AM)
Average temperature yesterday: 75 °F

Past Weeks' High & Low Weather Summary

 TemperatureHumidityPressure
High86 °F (Nov 16, 1:55 PM)100% (Nov 17, 4:55 AM)30.18 "Hg (Nov 17, 4:55 AM)
Low32 °F (Nov 17, 4:55 AM)46% (Nov 16, 1:55 PM)29.89 "Hg (Nov 23, 1:55 PM)
Average73 °F78%30.03 "Hg
* Reported Nov 10 7:55 PM — Nov 25 7:55 PM, Havana, Weather by CustomWeather, © 2014

Note: Actual official high and low records may vary slightly from our data, if they occured in-between our weather recording intervals... More about our weather records

Advertising

Havana weather history for previous 24 hours

 ConditionsComfort  
Time TempWeatherWind HumidityBarometerVisibility
7:55 PM
Nov 25
75 °FPassing clouds.2 mph89%29.98 "HgN/A
6:55 PM77 °FPassing clouds.6 mph89%29.98 "HgN/A
5:55 PM79 °FPassing clouds.10 mph84%29.95 "HgN/A
4:55 PM82 °FPassing clouds.13 mph70%29.92 "Hg6 mi
3:55 PM84 °FPassing clouds.14 mph66%29.92 "HgN/A
2:55 PM84 °FScattered clouds.15 mph62%29.92 "HgN/A
1:55 PM86 °FScattered clouds.15 mph59%29.92 "Hg6 mi
12:55 PM86 °FScattered clouds.14 mph62%29.95 "HgN/A
11:55 AM86 °FPassing clouds.14 mph62%29.98 "HgN/A
10:55 AM84 °FPassing clouds.13 mph66%30.01 "HgN/A
9:55 AM84 °FPassing clouds.10 mph66%30.04 "HgN/A
8:55 AM81 °FPartly sunny.3 mph74%30.04 "Hg6 mi
7:55 AM75 °FPartly sunny.1 mph83%30.01 "Hg6 mi
6:55 AM75 °FPartly sunny.1 mph83%30.01 "Hg6 mi
5:55 AM73 °FClear.2 mph89%30.01 "Hg6 mi
4:55 AM73 °FClear.3 mph89%30.01 "Hg6 mi
3:55 AM73 °FClear.No wind89%29.98 "Hg6 mi
2:55 AM75 °FClear.5 mph83%29.98 "Hg6 mi
1:55 AM77 °FClear.3 mph83%30.01 "Hg6 mi
12:55 AM75 °FClear.3 mph83%30.01 "Hg6 mi
11:55 PM
Nov 24
75 °FClear.1 mph89%30.04 "Hg6 mi
10:55 PM75 °FClear.2 mph89%30.04 "Hg6 mi
9:55 PM75 °FPassing clouds.3 mph89%30.04 "Hg6 mi
Weather by CustomWeather, © 2014

See weather overviewHow to use our weather pages